This is the latest recevied weather packets stored in our database for station/object N9BSW. If no packets are shown the sender has not sent any weather packets the latest 10 day(s).
| Time | Temp. | Humidity | Pressure | Rain* | Wind** | Luminosity | Snow |
|---|---|---|---|---|---|---|---|
| 1777764661 | 11.11° C | 36% | 1017.9 hPa | 0 mm | - | 54 W/m² | - |
| 1777764356 | 11.11° C | 37% | 1017.9 hPa | 0 mm | - | 65 W/m² | - |
| 1777764054 | 11.67° C | 36% | 1017.9 hPa | 0 mm | - | 77 W/m² | - |
| 1777763751 | 11.67° C | 36% | 1017.8 hPa | 0 mm | - | 91 W/m² | - |
| 1777763449 | 11.67° C | 35% | 1017.8 hPa | 0 mm | - | 120 W/m² | - |
| 1777763147 | 11.67° C | 35% | 1017.9 hPa | 0 mm | - | 110 W/m² | - |
| 1777762845 | 11.11° C | 36% | 1018 hPa | 0 mm | - | 114 W/m² | - |
| 1777762540 | 11.67° C | 34% | 1017.9 hPa | 0 mm | - | 95 W/m² | - |
| 1777762237 | 11.67° C | 35% | 1018 hPa | 0 mm | - | 97 W/m² | - |
| 1777761933 | 11.67° C | 37% | 1018 hPa | 0 mm | - | 261 W/m² | - |
| 1777761631 | 11.67° C | 35% | 1017.9 hPa | 0 mm | - | 111 W/m² | - |
| 1777761328 | 11.11° C | 37% | 1018 hPa | 0 mm | - | 298 W/m² | - |
| 1777761027 | 11.11° C | 38% | 1017.9 hPa | 0 mm | - | 93 W/m² | - |
| 1777760723 | 11.67° C | 37% | 1017.6 hPa | 0 mm | - | 132 W/m² | - |
| 1777760420 | 12.22° C | 34% | 1018.1 hPa | 0 mm | - | 145 W/m² | - |
| 1777760115 | 13.33° C | 31% | 1017.8 hPa | 0 mm | - | 139 W/m² | - |
| 1777759813 | 12.78° C | 35% | 1017.8 hPa | 0 mm | - | 303 W/m² | - |
| 1777759508 | 13.33° C | 35% | 1018 hPa | 0 mm | - | 408 W/m² | - |
| 1777759205 | 13.33° C | 35% | 1017.9 hPa | 0 mm | - | 415 W/m² | - |
| 1777758903 | 12.78° C | 35% | 1017.9 hPa | 0 mm | - | 457 W/m² | - |
| 1777758599 | 12.78° C | 35% | 1017.8 hPa | 0 mm | - | 512 W/m² | - |
| 1777758296 | 13.33° C | 35% | 1017.6 hPa | 0 mm | - | 550 W/m² | - |
| 1777757994 | 13.89° C | 36% | 1017.6 hPa | 0 mm | - | 564 W/m² | - |
| 1777757690 | 13.33° C | 33% | 1017.8 hPa | 0 mm | - | 577 W/m² | - |
| 1777757389 | 13.33° C | 34% | 1017.9 hPa | 0 mm | - | 606 W/m² | - |
* Rain latest hour (hover to see other rain measurements)
** Current wind speed in m/s (hover to see current wind gust speed)